RH
20 15 12 12 20 27 27 22 21 26 43 98 99 100 100 100 100 99 100 99 98 99 77 72 32 36 30
18 19 19 18 13 13 27 29 24 24 41 80 100 99 100 100 100 100 99 99 96 92 70 35 45 31 20
16 17 16 17 18 12 10 20 32 26 34 100 100 99 100 100 100 99 100 99 100 65 31 34 27 25 35
14 11 9 8 8 8 8 9 28 40 32 36 73 92 97 99 100 100 100 82 46 31 24 24 36 46 53
16 12 9 10 11 11 11 12 26 40 43 36 34 38 94 100 100 94 59 30 22 21 29 50 62 73 77
18 14 11 9 9 8 7 9 31 49 48 36 28 30 47 63 55 26 21 24 27 50 70 79 84 73 61
17 11 8 8 13 10 7 18 58 59 40 34 30 26 33 33 24 28 34 44 70 85 91 78 72 60 42
8 8 8 8 55 34 42 61 74 65 43 30 28 26 25 26 32 40 57 73 91 86 78 66 49 44 66
26 33 24 14 29 78 95 98 83 63 43 41 36 34 35 52 71 86 94 96 83 57 48 46 60 87 90
61 41 38 100 100 100 100 100 80 68 59 57 59 66 72 88 100 99 65 46 47 53 64 79 94 91 81
83 82 95 85 93 100 100 100 86 83 93 100 89 99 99 77 49 46 55 69 75 78 88 94 88 79 84
83 98 100 99 100 100 100 100 100 100 100 100 96 55 45 52 50 53 65 77 90 92 90 87 87 86 84
100 100 100 100 100 100 100 100 100 100 95 57 39 38 48 57 56 68 79 92 98 96 86 81 90 83 65
100 100 100 98 100 100 100 100 98 58 47 45 50 52 58 68 80 91 99 100 93 86 85 85 76 62 39
100 100 100 100 100 100 100 74 61 71 78 81 84 88 89 92 98 100 93 89 87 89 85 73 51 32 17
100 100 100 100 100 99 66 65 75 84 86 89 92 97 99 100 98 89 88 88 88 86 64 42 26 15 9
100 100 100 100 99 65 63 78 95 96 98 96 100 100 100 98 92 92 88 89 85 58 35 22 13 6 6
Wind_Speed
47 49 50 54 59 59 60 59 59 58 60 49 44 46 48 49 48 41 44 43 44 45 49 54 53 53 53
42 49 51 52 55 60 62 62 59 60 54 58 44 46 48 44 46 40 46 46 43 44 49 56 56 54 53
41 47 52 53 54 57 59 61 61 59 59 44 50 42 47 43 40 41 42 44 49 49 51 51 51 52 54
42 48 51 53 54 54 52 52 54 53 56 59 61 61 60 59 45 44 49 55 52 49 50 50 51 53 55
46 48 48 49 48 49 48 46 48 48 49 51 50 50 51 53 52 53 50 50 50 52 52 52 53 54 52
48 47 47 49 50 51 51 49 44 44 44 44 44 45 47 48 47 47 47 48 50 51 51 51 50 49 51
51 50 49 48 49 50 53 48 40 41 43 42 41 41 43 45 45 43 45 47 48 48 47 47 48 50 48
48 49 48 48 42 49 48 41 41 41 41 41 41 41 41 41 42 43 45 45 45 45 46 47 46 45 45
42 39 37 37 39 41 42 41 39 38 36 36 37 38 38 39 40 42 41 41 42 43 42 40 40 41 39
32 33 36 32 35 31 30 30 32 35 35 35 36 37 37 38 38 37 36 37 36 34 36 36 36 34 35
33 38 33 36 32 30 30 35 33 33 33 35 34 33 32 31 30 29 29 29 33 34 33 31 31 34 38
35 34 36 33 31 28 30 32 32 34 35 33 29 27 26 25 26 29 29 31 30 29 28 29 33 37 41
24 28 37 30 32 36 31 29 26 27 25 25 25 25 25 27 29 28 29 28 26 25 28 32 35 38 41
24 27 29 23 24 23 25 27 25 21 21 23 25 27 28 28 28 26 24 22 23 27 32 34 34 39 42
20 24 28 27 30 31 26 22 20 19 21 21 21 22 21 21 21 21 20 22 26 29 30 33 36 40 45
21 20 21 24 30 26 22 21 22 20 20 18 19 19 19 18 17 18 21 24 26 27 30 34 38 42 46
22 22 22 24 25 23 21 21 21 20 18 18 18 17 16 16 17 19 23 24 25 27 31 34 39 42 46
Wind_Direction
240 243 245 247 248 249 250 249 250 253 253 256 253 243 241 256 255 260 261 265 267 272 281 284 285 287 286
246 241 244 246 248 250 252 252 251 252 256 253 250 254 252 254 257 259 273 273 279 284 283 281 282 285 287
250 245 242 243 245 248 251 253 254 253 250 246 251 255 248 256 271 268 263 268 273 288 281 280 280 283 284
247 244 242 244 246 250 253 255 254 256 255 253 254 262 266 272 272 262 264 284 283 282 281 281 283 285 285
246 245 243 247 249 252 256 257 258 256 255 256 257 256 254 260 265 270 273 276 279 278 278 279 281 283 284
247 246 247 248 249 252 256 258 255 255 252 251 252 255 257 262 265 269 273 274 273 275 279 283 284 286 287
246 246 245 246 249 254 255 256 250 249 248 247 250 252 256 261 267 270 271 272 275 281 284 285 285 288 289
249 250 252 249 241 245 250 249 248 246 246 247 250 254 259 260 261 265 269 276 281 282 284 285 286 287 290
251 245 237 232 228 238 240 239 240 243 244 248 252 256 259 264 267 271 274 277 280 282 283 284 287 289 288
236 224 211 226 223 232 227 233 240 241 242 247 250 254 258 264 268 274 277 278 280 282 284 285 286 287 290
219 208 216 228 235 235 236 235 241 240 239 249 254 258 261 265 268 270 273 277 283 283 282 283 286 290 294
211 217 215 225 233 227 236 241 239 243 246 253 253 256 258 258 264 272 272 281 279 279 280 285 291 295 298
223 216 207 217 237 231 239 238 236 247 246 248 251 254 255 257 271 271 274 275 275 279 287 292 296 301 303
222 214 220 231 225 227 231 236 239 239 243 249 254 257 260 264 268 268 271 271 280 287 291 297 302 304 307
202 208 212 217 221 229 235 222 227 238 255 257 257 256 256 257 261 262 267 279 286 292 298 303 308 309 311
201 209 217 222 225 227 215 224 232 249 254 253 256 259 258 255 257 268 280 288 294 298 305 309 310 313 314
209 215 226 228 217 216 223 234 239 255 251 254 257 254 251 257 270 281 289 293 299 306 309 312 317 318 320